Theta_e
323 323 322 322 323 324 325 324 324 325 324 324 324 324 323 323 323 324 324 323 321 320 320 320 320 319 319 320 322 322 321 319 319 319 321 323 323 324 324 325 325 325 325 325 324 323 323 323 323 323 324 324 324 324 323 323 323 321 320 319 317 316 316 315 315 315 314 312 311 313 317 321 324 328
322 322 321 321 322 323 323 323 323 323 323 324 323 323 323 323 323 322 322 320 318 317 317 317 317 317 317 319 322 323 321 319 318 318 318 319 320 320 321 321 322 322 323 323 324 324 323 322 321 322 322 323 323 323 323 323 323 323 321 320 319 319 318 316 315 315 314 314 312 310 310 314 318 323
321 319 319 319 320 321 320 319 319 319 320 320 320 321 321 321 320 319 318 316 315 315 316 315 315 315 316 317 320 322 320 318 317 317 317 317 317 317 317 317 317 317 318 319 320 320 320 319 319 319 319 320 321 322 323 323 323 323 322 320 320 320 320 319 317 316 315 315 314 312 310 310 313 317
318 315 314 313 314 316 316 316 316 316 316 316 316 315 315 314 313 313 313 313 314 314 315 315 315 315 316 316 318 320 319 317 317 317 317 317 316 316 316 316 315 314 314 314 314 316 317 318 318 317 316 316 317 318 320 321 322 322 322 321 320 320 321 321 320 319 318 316 315 314 313 311 311 315
311 309 308 307 307 310 311 312 313 312 312 312 312 310 309 308 309 310 310 311 313 315 315 315 314 315 316 316 316 317 317 316 316 316 316 316 316 316 315 315 314 312 311 311 311 313 315 316 317 315 314 314 314 315 316 317 318 320 321 321 321 321 321 322 322 321 320 319 317 315 314 313 312 313
305 305 304 304 304 305 305 306 307 307 306 306 306 305 305 306 308 310 310 311 313 315 315 315 315 315 315 315 315 315 315 315 315 315 315 314 314 314 313 313 311 310 309 308 309 311 313 314 314 314 313 312 313 313 314 315 315 316 317 318 318 319 319 320 321 321 321 321 319 317 316 315 313 312
303 303 303 303 302 303 302 302 302 302 301 301 301 302 304 307 309 311 312 312 313 314 314 314 314 314 314 314 314 314 314 314 314 314 314 313 312 312 310 310 308 307 307 307 306 307 309 310 312 312 310 310 310 312 312 313 314 314 314 315 316 316 316 317 318 320 321 321 321 320 319 317 315 314
302 302 302 302 301 301 301 301 300 300 300 300 299 300 302 304 306 309 312 313 313 314 314 314 314 314 313 313 313 313 312 312 312 311 310 310 309 308 305 303 302 302 302 303 302 302 303 304 306 308 308 308 309 311 312 313 313 313 313 314 315 316 316 316 316 317 318 320 321 322 322 320 318 315
301 301 301 301 300 300 300 300 299 300 299 299 299 299 299 300 300 303 306 307 308 308 309 309 310 310 309 308 307 306 305 304 303 303 302 302 302 301 299 298 297 298 298 299 299 299 300 301 303 306 307 307 307 309 312 313 312 312 313 313 314 315 315 316 316 316 316 317 319 320 322 321 319 316
301 300 300 300 300 299 300 299 299 299 299 299 299 299 299 300 300 300 300 300 300 300 300 300 301 301 300 299 298 298 297 297 297 297 297 297 297 297 297 296 296 297 297 298 299 300 301 304 307 308 308 307 306 309 312 312 312 311 312 312 312 313 314 315 315 316 316 316 317 319 320 320 319 317
301 300 300 300 299 299 299 299 299 299 299 299 299 299 300 300 299 299 298 297 297 297 296 296 296 296 296 296 296 296 296 296 296 297 297 297 296 297 297 297 297 297 297 298 299 300 303 305 308 308 308 307 306 309 312 312 311 310 309 308 308 310 312 313 313 314 314 315 316 316 317 319 319 318
301 300 299 299 299 299 299 298 299 298 298 299 299 299 299 299 298 298 298 297 297 296 296 296 296 295 296 295 295 295 295 296 298 299 299 299 298 298 298 298 298 298 298 297 298 299 301 302 305 307 307 307 306 307 310 311 310 310 308 304 303 307 311 312 311 311 312 313 315 315 315 317 318 319
303 300 299 299 299 298 298 298 298 298 298 298 298 298 298 298 298 298 298 297 297 296 296 296 296 295 295 296 297 298 299 300 301 302 301 301 300 299 299 298 299 299 298 297 297 297 298 299 301 303 305 306 305 305 306 308 309 308 306 303 304 310 312 311 310 309 309 311 313 314 314 314 315 316
306 301 299 298 298 298 298 298 298 298 298 298 298 298 298 298 298 298 297 297 296 296 297 297 295 294 296 299 302 303 304 303 303 303 304 302 301 301 300 299 299 299 299 298 297 297 297 297 297 299 301 302 303 303 303 304 305 304 303 305 308 312 312 311 310 309 308 309 310 310 311 312 313 314
308 303 299 298 297 297 298 298 297 297 297 297 297 298 297 297 297 297 297 296 296 296 297 297 296 297 300 303 304 304 305 304 304 305 305 304 303 302 301 301 300 299 299 299 298 298 297 296 296 296 298 299 299 300 300 301 301 302 303 306 310 310 310 310 310 309 308 309 308 308 309 310 312 313
310 305 299 297 297 297 297 297 297 297 297 297 297 297 297 297 296 296 296 296 296 296 296 297 300 302 303 304 303 304 304 304 304 305 306 304 303 302 301 301 300 299 299 298 298 297 297 296 296 296 296 296 297 297 297 299 302 303 304 306 307 307 307 308 308 309 309 309 308 307 308 309 310 311
310 307 302 297 297 297 297 297 297 297 297 296 296 296 296 296 296 296 296 296 297 297 297 300 303 304 303 302 302 303 303 303 304 305 305 305 303 302 300 300 299 299 298 298 298 297 296 296 296 296 296 295 295 296 296 299 302 302 302 303 303 304 304 304 306 308 309 309 308 308 307 307 308 309
310 310 305 298 297 297 297 297 297 296 296 296 296 296 296 296 296 296 297 298 298 299 300 302 302 302 301 301 301 301 302 303 304 304 304 304 302 300 299 298 298 298 297 297 298 298 297 296 296 296 295 294 294 295 298 300 301 300 300 299 299 300 300 301 304 307 308 308 308 309 309 308 307 308
309 306 302 298 297 297 297 296 297 297 296 296 297 297 297 296 296 296 297 299 300 301 302 301 301 300 299 299 299 299 300 301 302 302 302 301 300 299 298 298 297 297 297 297 298 298 297 296 296 296 295 294 294 294 297 300 300 299 298 298 298 298 298 298 301 305 307 307 307 308 309 308 307 307
304 300 298 297 297 297 297 297 297 297 297 297 297 297 297 296 296 297 298 299 300 301 301 300 299 299 299 299 299 299 299 299 299 299 299 299 298 298 298 297 297 297 297 297 298 297 296 296 296 296 295 295 294 294 295 297 298 299 298 298 297 298 297 297 297 299 302 303 304 306 307 307 306 306
298 297 297 297 297 297 297 297 297 297 296 297 297 297 297 296 296 297 298 298 299 299 300 300 299 299 300 300 299 299 299 298 298 298 298 298 298 298 298 297 297 296 296 297 297 296 296 296 296 296 295 295 294 294 294 295 296 298 298 298 297 297 297 296 296 298 300 301 302 303 304 305 305 305
297 299 301 299 296 296 297 296 296 297 297 297 297 297 297 297 297 297 298 298 298 298 299 299 299 299 299 299 300 299 299 299 299 298 298 298 297 297 297 297 297 297 297 297 296 296 296 295 295 295 295 295 294 294 294 294 295 297 298 298 297 297 296 296 297 299 301 301 302 303 303 304 304 304
300 303 305 303 298 296 297 297 297 297 297 297 298 297 297 297 298 298 299 299 299 298 299 299 299 299 299 299 299 299 299 299 299 298 298 297 296 296 297 297 297 296 296 296 295 295 295 294 294 294 294 294 294 294 294 294 294 296 297 297 297 297 296 296 298 300 300 300 301 303 303 304 304 304
304 305 306 305 300 297 296 297 296 297 297 298 298 298 298 298 298 298 299 300 300 299 299 299 299 299 299 299 299 299 299 299 298 298 297 296 296 296 297 297 296 296 295 295 295 294 294 293 293 293 293 294 294 294 294 294 295 295 296 296 296 296 296 297 299 300 300 299 299 301 303 304 305 305
307 307 307 306 303 298 296 296 297 297 298 299 299 299 299 299 299 299 299 299 300 299 299 298 299 299 299 299 299 299 298 298 297 297 296 296 296 296 296 296 296 295 295 295 295 294 293 293 293 293 293 293 293 294 294 294 294 295 295 296 296 296 297 298 299 300 300 299 298 298 300 303 304 304
309 308 308 307 305 301 297 296 297 298 299 299 300 300 300 300 299 299 299 299 299 299 298 298 298 299 299 298 298 298 298 297 296 296 296 296 296 296 296 296 295 295 295 295 294 294 293 293 293 293 293 293 293 294 294 294 294 294 295 296 297 297 298 299 299 299 299 299 298 297 298 300 302 303
309 309 308 308 306 301 297 296 298 299 299 300 300 300 300 300 299 299 299 299 299 299 298 298 298 298 298 298 298 297 297 295 295 295 295 296 296 296 296 296 295 295 295 294 294 293 293 293 293 293 293 293 293 293 293 293 294 294 295 296 297 297 297 297 298 298 298 298 298 298 297 298 300 301
309 309 309 308 304 298 295 297 299 299 299 300 300 300 300 300 300 299 298 298 298 298 298 298 298 298 298 297 297 297 296 294 293 293 294 295 295 296 296 296 295 295 295 294 294 293 293 293 293 293 293 293 293 293 293 293 293 294 294 295 296 296 296 296 296 296 296 297 297 297 297 297 297 298
309 309 309 308 304 297 296 298 299 300 300 300 300 300 300 300 299 298 297 297 298 298 297 297 297 297 297 297 297 296 295 292 291 291 293 293 294 294 294 294 294 294 293 293 292 292 292 292 292 292 292 292 292 292 292 292 293 293 294 294 295 295 294 294 295 295 295 295 295 296 296 296 296 296
310 309 308 308 303 297 297 299 300 300 300 300 300 300 300 300 299 298 297 297 297 297 296 296 297 297 297 296 296 295 293 291 290 290 291 292 292 293 292 292 292 292 292 292 292 291 291 291 291 290 291 291 291 291 291 292 292 293 293 293 293 293 293 293 294 294 294 294 294 294 294 295 295 295
309 308 308 305 300 297 299 300 300 300 300 300 300 300 300 299 298 297 296 296 295 295 295 296 296 296 296 295 294 293 292 290 289 289 290 291 291 291 291 292 292 292 292 292 291 291 290 290 290 290 290 290 291 291 291 291 292 292 293 292 292 292 293 293 292 292 292 293 293 293 293 293 294 294
308 307 306 302 298 298 299 300 299 300 300 300 300 300 300 299 297 296 295 294 294 294 295 295 295 295 294 293 293 292 291 290 289 289 290 291 291 291 291 291 291 292 292 292 292 291 290 289 289 290 290 290 290 290 290 291 291 292 292 292 292 292 292 291 291 291 292 292 293 293 293 293 294 294
305 304 302 299 297 298 299 300 300 301 300 300 300 300 299 298 296 295 295 294 294 294 294 294 293 293 292 292 292 292 291 291 290 290 290 290 291 291 291 291 291 291 291 291 290 290 289 288 288 289 290 290 290 290 290 290 290 290 291 291 291 290 290 290 291 292 292 292 292 292 293 293 293 294
300 298 298 297 298 299 300 300 300 300 300 300 299 299 298 297 296 295 294 294 294 294 293 293 292 292 292 292 293 292 292 292 291 290 290 290 291 291 291 291 291 290 290 289 289 288 287 287 287 287 288 288 288 288 288 288 288 289 289 288 288 288 288 290 291 292 292 292 292 292 292 292 293 293
297 296 296 298 300 300 300 300 300 300 300 299 298 298 297 296 295 294 294 294 293 293 293 292 292 292 292 293 293 292 292 292 291 290 290 290 290 290 290 290 290 290 289 288 287 286 286 286 286 287 287 287 287 287 287 288 288 288 288 288 288 288 288 289 290 291 291 291 291 291 292 292 292 293
296 295 296 298 300 301 300 300 300 300 299 297 297 297 297 296 295 294 293 293 293 293 292 292 291 292 292 293 293 292 292 291 290 290 290 290 290 290 290 290 290 289 288 286 286 285 285 285 286 287 287 287 286 287 288 288 288 288 289 289 289 289 288 288 289 290 290 290 291 291 291 291 292 293
295 295 295 298 300 301 300 301 300 298 297 296 296 297 296 295 294 293 293 293 292 292 291 291 291 292 292 293 292 292 291 290 290 290 290 290 290 290 290 290 289 288 286 285 285 285 284 284 285 286 286 286 287 287 288 288 288 288 289 289 289 289 289 289 289 289 289 289 289 290 290 290 291 293
295 295 297 299 301 301 300 300 299 297 296 296 296 296 296 295 294 293 293 292 291 291 290 291 291 292 292 292 291 290 290 290 290 290 290 290 290 290 289 288 287 286 285 285 284 284 283 284 285 286 286 287 287 287 287 288 288 289 289 289 289 289 289 289 289 289 289 289 290 290 291 291 292 293
294 295 298 300 300 300 300 300 299 298 297 296 296 296 295 294 293 293 292 291 291 290 290 290 291 291 291 290 290 290 290 290 290 290 290 290 289 289 288 287 286 285 284 284 284 283 283 285 286 287 287 287 287 287 287 288 288 289 289 290 289 289 289 289 289 289 289 290 290 291 292 292 293 293
296 297 299 300 300 300 300 299 299 298 297 296 296 295 294 293 293 292 291 290 290 290 290 290 290 290 289 289 289 290 290 290 289 289 289 289 289 289 288 287 286 284 284 284 284 283 284 286 287 287 287 287 287 287 288 288 289 289 290 290 290 289 288 288 288 288 289 289 290 291 292 293 293 294
298 299 300 300 300 300 300 300 299 298 296 296 295 294 294 293 292 291 290 290 290 290 289 289 289 289 289 289 289 290 289 289 289 289 289 289 289 289 288 287 285 284 284 283 283 283 285 287 288 288 288 288 287 287 288 288 289 290 291 291 291 290 290 289 288 288 288 289 289 290 291 291 292 293
300 300 300 300 300 300 300 300 299 297 296 295 295 294 293 292 292 291 290 290 290 289 289 289 289 289 289 289 289 289 289 289 289 289 289 289 289 288 287 286 284 284 283 283 283 284 286 288 289 288 288 288 287 287 287 287 287 288 291 292 293 292 291 290 290 289 289 289 289 290 290 290 291 292
301 300 301 300 300 300 300 299 297 296 295 295 294 293 292 292 291 290 290 290 289 289 289 289 289 289 289 289 289 289 289 289 289 289 289 289 288 287 286 285 284 284 283 283 284 286 288 289 289 288 288 287 287 287 287 286 286 286 288 290 292 293 292 292 291 290 290 290 290 290 290 290 290 291
300 300 300 300 300 300 300 298 296 295 294 294 293 293 292 291 290 290 290 290 289 289 289 289 289 289 289 289 289 289 289 289 289 289 289 288 287 285 285 284 284 284 284 283 284 287 289 289 289 288 287 287 287 286 286 286 286 285 286 288 289 291 292 292 292 292 292 292 291 291 291 291 291 291
300 300 300 300 300 300 299 296 295 294 293 293 293 292 291 290 290 290 290 289 289 289 289 289 289 289 289 289 289 289 289 290 290 289 288 287 286 285 284 284 284 284 284 284 285 287 288 288 288 288 287 287 287 286 286 285 285 285 286 287 288 289 289 290 290 291 292 293 292 291 291 292 292 292
Wind_Speed
6 5 4 4 4 4 3 3 3 3 3 2 2 2 3 3 4 6 8 9 9 9 10 10 9 7 8 8 6 4 5 5 5 3 3 4 5 7 8 9 10 10 11 11 11 12 13 14 15 16 16 16 16 16 17 17 16 15 15 14 14 14 15 16 17 18 19 20 20 21 21 21 23 25
6 5 5 4 5 4 3 3 3 2 2 2 1 1 2 2 2 5 8 9 8 8 9 9 6 5 5 4 1 1 3 5 5 4 4 5 6 7 8 8 9 10 10 10 11 11 10 11 12 14 15 16 17 18 19 19 19 18 17 16 15 16 16 17 17 18 19 20 20 21 21 22 23 24
4 3 4 4 4 4 2 2 2 1 1 1 1 1 1 1 1 3 5 8 8 6 6 6 4 3 3 2 0 0 2 3 4 5 6 7 8 9 10 10 11 11 10 9 9 9 9 10 11 12 13 15 17 18 19 20 20 20 20 19 18 18 19 19 19 20 20 20 21 21 22 23 23 24
2 2 3 3 4 3 2 2 2 1 0 0 2 2 1 1 1 2 3 6 8 6 4 3 3 3 2 1 1 0 1 2 2 3 5 7 8 10 11 12 13 14 14 13 11 10 10 11 12 12 13 14 16 17 18 19 21 21 21 21 21 22 22 22 22 22 22 22 22 22 22 22 23 23
3 3 3 4 4 3 3 2 2 2 1 2 2 2 2 1 1 2 2 5 7 6 4 2 2 2 1 2 1 1 1 1 2 3 6 7 9 11 12 13 14 15 15 15 14 13 13 14 14 15 15 15 15 16 17 18 19 20 22 23 24 25 26 26 25 25 24 24 24 23 23 23 23 23
4 3 3 4 5 4 2 2 2 2 2 1 1 1 1 1 2 2 2 4 6 5 4 3 2 1 2 3 2 3 5 6 7 8 10 11 12 13 14 14 15 15 15 16 15 14 15 15 16 16 17 17 16 16 16 17 17 18 20 21 22 23 25 26 27 28 27 26 26 25 24 24 24 24
3 2 2 3 4 3 2 2 3 3 3 3 2 2 2 2 2 2 2 3 4 3 2 1 1 3 4 5 6 7 8 10 11 13 14 15 15 16 17 17 16 15 16 16 16 16 17 17 17 17 17 16 15 15 15 16 16 17 17 18 19 19 20 22 24 26 28 29 29 28 27 26 25 25
2 1 1 3 3 2 1 2 3 3 3 3 3 3 3 2 1 1 1 2 2 1 2 3 4 5 7 9 10 10 11 13 14 16 16 17 17 17 18 18 17 16 16 16 17 17 18 18 18 17 16 14 12 12 12 12 12 13 14 15 16 17 18 18 19 21 24 26 28 30 29 28 27 26
2 1 1 2 2 1 0 1 3 3 3 4 4 4 4 3 2 2 1 1 1 2 3 4 5 7 8 10 12 13 14 15 15 16 16 16 16 16 16 17 18 17 16 16 16 15 15 15 15 14 13 13 12 12 10 10 10 11 11 12 13 15 16 16 17 18 20 22 25 27 29 29 28 27
2 2 2 2 2 1 1 2 3 4 4 5 5 5 6 6 4 4 4 4 3 3 4 5 6 7 9 10 12 13 15 16 16 16 15 15 15 16 17 19 19 18 17 15 13 12 11 10 9 9 11 12 11 11 11 11 12 12 12 13 13 14 15 16 17 17 17 18 20 23 26 28 28 28
4 4 3 3 3 2 3 4 5 5 5 5 5 6 6 6 5 4 5 5 5 6 7 8 9 11 12 12 13 15 16 16 17 18 19 19 19 19 19 21 21 19 17 14 12 11 9 6 7 8 10 11 10 10 11 11 12 14 14 14 14 14 14 15 15 16 17 17 18 19 21 24 27 29
4 4 4 3 3 4 5 5 6 5 5 5 5 5 5 5 4 4 5 5 6 7 8 10 11 13 14 14 14 15 16 17 18 21 22 22 22 21 20 20 22 22 20 17 16 16 14 10 9 10 11 12 12 12 11 12 13 15 16 17 16 14 13 13 14 14 15 16 16 17 18 19 23 26
4 3 4 4 4 5 5 6 6 5 5 5 4 5 5 5 5 5 5 6 8 9 10 11 13 14 15 14 15 16 17 18 20 22 23 23 23 23 21 18 20 24 23 21 20 21 21 18 15 14 15 15 15 15 14 15 17 18 19 19 16 13 12 13 14 14 14 14 15 16 17 18 19 21
4 3 3 4 4 5 6 6 6 6 5 5 5 5 6 7 7 8 9 10 12 13 13 14 15 15 14 13 14 15 15 17 19 19 20 21 23 26 24 20 21 26 28 27 25 25 26 25 22 20 19 18 18 17 16 17 19 20 19 17 14 12 13 15 16 15 15 14 14 15 16 18 19 20
4 3 3 4 5 5 5 6 6 6 6 5 6 6 7 9 10 12 12 12 13 14 14 15 14 12 12 12 12 13 13 14 15 16 17 19 21 24 25 25 26 29 32 32 31 29 29 28 27 25 23 23 22 19 17 16 17 17 16 14 13 14 15 16 17 17 15 13 13 13 14 16 17 19
2 3 3 4 6 6 5 6 6 6 5 5 6 7 8 10 11 12 13 13 14 14 12 11 10 10 11 13 14 14 13 13 13 13 15 17 19 20 22 25 28 30 31 32 32 32 30 29 29 27 25 25 24 22 17 14 14 14 14 15 15 16 17 17 18 17 15 13 13 13 13 14 15 17
1 1 2 4 6 6 6 5 5 5 4 5 6 7 8 9 11 11 12 13 12 11 10 9 9 10 12 14 15 15 13 12 12 13 15 17 18 20 23 26 28 29 29 28 28 29 30 29 29 27 25 24 23 20 15 12 12 13 14 16 17 18 19 19 19 18 17 14 13 13 13 14 14 15
3 2 1 4 6 6 6 5 4 4 4 4 5 6 7 9 10 10 9 10 10 9 8 8 9 11 13 15 16 15 13 13 13 14 16 17 19 22 25 28 28 28 28 25 22 25 28 29 30 31 29 26 24 19 13 11 12 14 15 16 18 18 19 19 19 18 17 16 16 16 16 15 15 15
4 3 3 7 7 6 6 4 3 3 3 4 4 6 8 10 10 9 8 9 9 8 8 8 9 12 14 16 18 17 15 15 15 16 17 19 23 26 28 29 29 29 27 21 19 23 28 29 31 34 34 31 27 21 15 13 14 15 16 16 17 19 19 19 18 18 18 18 19 19 18 17 17 17
5 4 6 8 7 6 5 4 2 2 4 4 5 7 10 10 10 9 9 9 8 8 9 10 11 14 15 16 18 19 18 17 18 19 21 23 26 28 29 29 28 28 26 21 21 26 30 30 32 33 34 34 31 25 19 16 15 17 18 18 18 19 20 19 19 19 20 21 22 21 20 19 18 18
8 8 8 7 6 6 4 2 1 2 4 4 5 7 9 10 10 9 9 8 8 8 9 9 11 12 12 14 16 18 19 19 20 22 24 26 28 29 29 29 27 27 25 23 25 29 31 32 32 31 33 34 32 29 25 21 17 17 18 18 18 19 20 20 19 18 19 19 21 22 22 21 21 20
11 10 8 7 5 5 3 2 0 2 3 4 5 7 9 10 11 10 10 10 11 10 8 7 9 10 12 13 14 17 18 19 21 23 25 27 28 28 28 26 26 26 25 24 28 31 33 34 33 32 33 34 32 31 30 26 20 17 18 18 18 20 21 20 19 18 18 17 17 18 19 21 22 22
13 11 9 7 6 4 3 2 1 2 3 4 5 7 9 11 12 12 12 12 13 13 10 9 10 11 13 13 14 15 17 19 21 23 26 27 28 26 24 24 24 25 24 24 28 31 32 33 32 30 31 33 33 31 29 26 21 18 19 21 22 22 21 19 17 19 20 19 17 15 15 17 19 21
15 12 10 8 6 4 3 2 1 2 3 4 5 7 10 12 12 13 12 11 12 12 12 12 13 12 12 12 12 14 17 19 22 25 26 26 24 23 23 23 24 24 24 25 28 29 30 30 28 25 25 28 31 30 27 24 21 19 19 21 22 22 19 16 15 17 19 20 19 17 15 14 16 18
16 14 11 9 7 4 3 2 1 2 2 4 6 7 9 10 11 13 12 10 10 11 13 15 14 12 11 12 15 18 21 23 25 25 24 21 20 20 21 23 24 24 25 26 27 28 29 28 27 25 24 25 27 29 27 25 22 19 18 19 20 20 18 16 15 16 18 20 20 19 16 15 15 17
17 15 13 11 8 5 3 2 1 1 2 4 5 6 7 9 10 11 11 11 12 14 16 16 15 14 15 17 20 23 25 27 27 25 22 20 19 19 20 21 23 23 24 24 24 24 25 25 24 25 26 26 27 28 28 27 24 21 18 16 16 16 16 16 16 16 18 21 22 22 19 16 16 17
17 16 15 13 9 6 4 3 1 1 2 4 4 5 6 8 9 11 12 13 14 16 17 17 17 17 19 22 24 26 28 29 27 24 21 20 20 20 21 22 23 24 25 25 24 21 21 21 22 23 24 26 28 29 29 28 27 24 20 16 14 14 16 17 18 19 20 22 24 26 24 20 17 17
18 18 17 13 9 6 5 4 3 2 4 4 4 5 6 8 10 12 14 15 15 16 17 18 18 19 21 23 25 28 29 30 27 24 22 22 22 23 24 25 26 28 29 28 25 22 21 22 24 24 25 26 28 28 28 27 26 24 22 20 17 16 18 20 22 23 24 25 26 28 29 26 22 20
20 20 17 13 10 7 6 5 5 5 6 6 5 5 7 9 12 14 15 15 16 17 18 18 19 20 22 24 27 29 30 29 27 24 23 24 24 26 27 27 27 27 28 27 24 21 20 22 23 24 24 23 23 23 24 24 24 22 21 23 22 20 20 22 25 27 28 29 29 29 30 30 28 26
22 21 17 14 11 9 7 7 7 7 7 6 6 7 9 11 13 15 16 16 16 18 18 19 20 21 23 26 27 29 28 26 24 24 24 24 25 25 26 25 23 21 19 19 18 17 17 19 19 19 20 19 18 19 21 22 22 21 20 22 25 26 26 26 28 29 30 31 32 31 30 30 29 28
23 20 17 13 11 9 9 10 9 9 8 7 7 8 10 12 14 15 16 16 18 18 18 19 21 23 25 26 27 27 26 25 24 23 22 21 21 21 22 22 21 19 16 15 15 16 18 19 17 16 18 19 19 19 19 19 20 21 21 22 25 28 30 31 31 30 29 29 29 28 27 26 25 25
20 18 15 13 12 12 12 11 10 9 8 7 8 10 11 13 15 15 16 17 19 19 19 21 22 24 26 27 27 27 27 26 25 24 22 20 21 22 23 22 22 21 20 18 16 17 19 20 18 15 15 18 19 19 18 18 19 22 24 25 27 29 31 32 31 29 27 26 27 26 25 23 22 23
17 16 15 15 15 15 14 12 10 8 7 7 9 11 12 13 14 15 16 18 18 19 21 23 24 26 27 27 27 27 27 27 27 27 25 24 24 24 23 22 22 23 25 24 23 23 23 22 20 17 16 17 18 19 20 21 22 24 26 28 30 31 30 29 27 25 25 26 28 29 28 26 24 24
15 15 15 16 17 16 14 12 10 9 8 9 11 12 13 13 14 15 17 18 19 20 22 24 26 27 28 27 27 27 27 28 29 29 27 26 25 23 23 23 24 25 27 28 28 27 26 25 24 23 21 21 21 21 22 23 25 27 28 29 30 30 28 27 26 25 25 26 30 33 34 31 28 27
15 15 15 16 16 15 13 12 11 10 10 11 12 12 12 13 15 16 17 18 19 21 23 25 27 27 27 27 26 26 27 29 29 28 24 22 22 22 23 24 26 26 28 29 28 27 26 26 26 27 28 30 30 28 25 23 25 29 30 30 29 29 28 28 28 28 29 29 32 35 37 36 32 28
14 14 15 16 16 15 13 12 12 12 12 11 12 12 12 13 15 16 17 18 20 22 24 26 27 27 26 25 25 26 28 28 25 22 20 20 22 23 24 25 26 27 28 28 26 25 25 25 26 27 31 34 36 35 32 28 27 29 31 31 30 29 30 31 32 33 34 34 35 36 38 38 35 31
13 13 15 17 16 15 14 13 12 11 11 10 11 12 13 14 15 16 17 18 20 22 24 24 25 25 24 24 26 27 26 22 19 19 20 22 24 24 25 26 27 28 28 27 26 25 26 26 26 26 29 32 34 36 37 35 32 29 29 30 31 29 29 31 32 33 34 33 33 33 34 35 35 33
13 14 16 18 17 15 14 13 12 10 10 10 11 12 13 14 15 16 17 19 20 21 22 22 22 22 24 26 26 23 19 17 18 20 22 24 25 26 27 27 28 28 28 28 28 27 26 26 24 23 25 29 31 34 38 40 39 32 27 28 30 30 29 29 29 30 30 29 28 28 28 29 31 30
14 15 18 19 17 15 14 12 11 10 10 11 12 12 13 14 15 15 17 19 20 20 20 20 21 23 25 25 21 17 16 18 21 23 25 27 27 27 27 27 28 29 29 29 29 28 25 22 21 21 23 25 28 31 35 39 40 35 29 27 28 29 28 27 28 28 28 27 26 26 26 26 26 24
16 18 19 19 17 15 13 12 10 10 11 12 12 12 13 14 14 16 17 18 19 19 19 20 22 24 23 20 16 16 18 21 24 26 28 28 27 26 26 27 28 29 30 30 30 28 24 20 19 20 22 24 27 31 33 35 36 35 30 27 27 27 26 25 25 26 27 25 24 25 26 26 25 22
18 19 19 18 16 15 13 11 11 12 12 12 12 12 13 14 15 16 17 17 18 18 19 20 21 21 18 16 16 18 21 23 26 28 28 27 26 25 26 26 27 28 29 30 30 27 23 20 19 20 23 26 29 32 33 34 36 36 32 29 27 27 24 22 21 22 22 21 21 23 23 24 24 23
19 19 18 17 15 13 12 12 12 12 11 11 12 12 13 14 15 16 16 17 18 18 18 18 17 16 16 16 17 20 22 25 27 27 26 26 26 26 26 27 28 28 29 30 29 26 23 21 21 22 25 28 29 31 33 34 37 37 35 32 30 27 23 19 17 16 16 15 17 19 21 22 24 25
21 19 17 15 14 13 12 12 12 11 11 11 12 13 13 14 15 16 16 17 17 17 15 15 15 15 16 17 18 20 23 26 27 27 26 26 26 26 27 27 27 28 29 29 27 24 22 22 23 24 26 28 29 31 33 34 35 37 37 35 32 29 24 19 16 13 12 11 11 13 15 18 21 24
21 18 16 15 14 13 12 11 10 10 11 12 12 12 13 13 14 15 16 17 16 14 13 14 14 15 16 17 19 21 23 25 26 26 26 25 25 26 27 27 27 28 28 27 26 23 22 23 23 24 27 29 30 31 33 34 35 36 36 35 32 29 25 22 19 16 13 10 9 10 12 14 17 20
20 18 16 14 13 12 10 9 10 10 11 11 12 12 12 13 14 15 16 15 14 13 13 13 14 15 16 19 21 23 24 25 25 25 25 25 25 26 26 27 27 27 27 26 25 25 24 25 25 25 27 29 31 32 33 34 34 35 35 34 31 27 24 23 23 22 19 15 12 11 12 15 17 19
Wind_Direction
70 68 70 70 77 80 68 59 70 84 92 85 62 48 61 88 104 101 91 78 73 71 65 59 56 47 48 53 41 21 30 30 24 22 350 311 300 299 300 298 295 291 287 284 280 280 286 290 290 290 291 291 291 291 291 290 288 286 285 286 288 288 285 283 283 283 282 281 278 274 271 268 264 261
68 71 83 85 91 99 88 73 76 78 85 87 85 71 60 62 86 102 102 89 77 78 73 62 53 43 40 53 60 0 20 11 0 356 339 327 326 322 317 314 309 302 295 286 279 277 285 292 290 289 289 287 286 288 290 292 292 290 285 280 282 286 287 285 282 281 281 282 281 277 272 269 267 266
73 77 95 100 108 119 114 105 107 95 79 60 30 79 136 151 104 112 115 96 80 81 85 68 50 35 24 27 83 32 25 6 348 338 328 326 328 326 328 331 330 327 323 314 303 290 284 286 288 292 295 293 288 285 284 285 287 287 283 278 276 278 281 282 281 280 279 279 281 282 278 272 268 268
94 105 119 122 126 144 170 163 158 179 179 298 309 315 304 265 176 176 156 113 92 82 85 80 74 61 12 275 205 158 38 17 354 334 323 319 316 315 320 324 323 324 325 323 320 312 304 300 301 303 304 302 299 294 288 285 283 282 280 277 275 275 277 278 278 278 278 277 278 280 281 278 272 269
121 129 131 133 133 154 194 201 193 204 219 245 276 295 301 277 189 180 176 142 122 105 98 108 107 84 342 275 226 217 245 296 322 319 314 311 311 314 317 319 318 318 318 315 312 308 307 308 310 311 311 310 308 303 297 292 287 284 281 279 278 277 277 276 275 275 275 275 275 276 277 278 276 271
117 126 125 124 124 136 166 177 172 170 171 185 226 256 246 205 166 147 142 154 149 139 132 131 145 219 298 306 309 306 306 311 310 309 309 310 312 314 314 315 315 315 314 312 309 304 303 305 308 310 311 313 314 311 305 299 295 291 288 286 284 282 281 279 276 273 271 270 271 271 271 273 274 272
106 112 117 110 106 115 135 133 126 117 114 116 103 112 144 159 155 139 140 158 158 159 165 190 267 278 296 307 315 320 317 313 311 310 312 313 314 315 315 313 313 313 311 308 308 307 304 303 306 312 317 319 318 315 311 305 301 298 297 294 291 289 287 285 281 277 273 270 269 268 267 267 269 271
107 98 99 98 93 86 99 108 103 99 95 89 84 95 116 134 131 129 166 173 165 226 276 291 298 304 307 305 308 311 309 306 307 310 311 311 311 315 319 320 319 317 312 308 307 306 304 302 303 310 316 317 317 316 317 317 312 306 302 299 296 295 295 293 291 286 279 274 270 268 266 263 263 265
135 130 112 103 98 95 108 99 92 88 84 81 82 86 87 82 73 75 77 58 309 289 300 309 307 306 309 311 311 312 313 312 311 312 315 316 317 320 327 332 331 327 322 319 314 310 308 307 305 305 302 299 306 313 314 315 313 310 307 301 296 292 293 294 294 293 288 281 274 270 266 261 258 259
164 157 144 130 129 134 116 92 82 78 77 76 76 77 79 77 73 74 69 55 36 11 3 352 337 329 330 332 330 331 335 333 328 324 323 328 332 335 339 341 340 337 334 332 327 321 323 323 312 302 295 296 304 308 304 303 306 309 308 304 300 294 292 293 294 295 294 290 284 277 271 265 260 258
165 156 149 143 135 126 103 89 81 73 69 64 61 67 74 70 61 58 54 44 34 29 21 8 0 356 351 348 346 345 344 341 339 336 332 332 335 340 346 346 342 338 333 333 331 325 323 321 308 300 297 300 305 305 301 301 305 308 307 306 305 303 301 302 302 301 298 295 292 287 280 273 266 261
161 151 151 152 135 121 109 96 85 75 65 57 53 64 70 57 41 36 33 25 18 16 11 6 3 357 350 347 346 343 341 342 348 351 349 343 338 339 345 348 346 340 333 330 332 328 320 310 303 303 299 298 302 305 303 300 299 300 304 308 309 306 306 309 308 307 304 301 298 296 292 286 276 269
168 154 144 145 134 124 119 106 94 82 69 59 55 59 59 46 33 28 18 11 8 4 1 1 360 355 351 351 353 354 356 359 359 357 353 350 346 344 344 349 353 350 342 335 335 335 330 322 313 307 302 299 300 301 299 297 297 299 304 309 309 303 302 303 301 301 301 302 303 302 300 297 289 279
165 166 144 134 131 129 120 110 101 90 77 68 58 46 37 24 18 17 12 7 4 359 357 357 355 356 2 10 10 5 3 4 1 354 347 345 346 347 348 352 355 352 346 341 339 339 335 328 319 312 308 306 304 302 300 298 299 301 303 304 302 297 296 295 294 295 295 297 301 304 303 301 298 291
146 156 160 137 133 135 125 113 104 91 77 63 46 33 21 10 7 7 6 3 358 352 352 356 359 4 12 13 6 357 354 355 352 345 338 335 340 346 348 349 348 346 343 341 339 338 336 331 323 317 313 312 312 312 311 303 298 298 298 296 294 294 295 293 290 290 292 299 306 309 309 306 303 299
135 126 148 147 143 141 127 115 106 93 78 56 36 25 15 7 3 2 359 356 353 351 357 12 22 20 11 3 356 350 348 349 344 336 328 328 336 344 346 344 343 341 339 338 337 336 335 331 327 321 318 318 318 318 315 303 294 295 297 297 297 298 300 299 295 290 289 298 307 308 308 307 304 302
231 101 126 156 157 149 133 120 109 93 75 52 34 24 17 11 6 3 358 356 359 6 19 34 35 19 5 0 357 352 347 343 336 328 324 327 334 340 341 341 341 339 338 338 338 337 335 334 331 328 326 325 325 323 315 302 297 299 301 302 302 302 302 302 300 295 289 290 295 297 296 296 295 296
261 303 252 177 169 155 141 129 112 93 71 52 43 32 25 19 12 8 6 10 21 31 32 32 29 16 5 0 357 351 344 340 336 332 331 331 332 334 336 338 339 339 341 342 340 337 338 338 336 333 331 329 328 327 319 305 300 298 299 306 310 309 306 302 299 295 290 287 288 290 291 290 289 288
262 271 204 178 172 160 150 142 117 84 53 41 42 33 24 21 18 18 24 31 37 38 29 26 25 17 8 4 2 354 344 339 340 340 337 330 329 331 334 337 338 340 344 347 342 336 339 340 337 335 334 332 330 326 316 307 308 309 307 310 317 320 318 312 303 295 290 288 289 291 292 291 289 287
219 193 174 173 171 166 162 157 130 63 33 25 27 24 22 24 30 35 40 41 35 26 22 23 23 14 3 0 1 356 349 345 341 337 333 329 331 334 335 336 338 340 343 346 338 333 335 337 336 335 334 332 331 327 318 309 315 327 326 321 323 327 327 325 318 306 297 292 291 293 294 294 293 291
172 162 165 172 171 170 174 171 125 34 19 14 20 26 29 35 43 48 49 43 29 19 18 17 16 6 352 350 352 348 345 342 337 333 332 333 334 335 335 336 336 337 340 339 333 332 333 334 335 333 330 329 330 329 325 317 316 330 334 327 326 329 330 331 330 322 312 305 301 299 296 295 295 295
170 164 166 171 173 179 189 194 282 2 4 11 22 30 35 41 44 44 42 34 23 19 13 3 1 356 345 343 342 336 335 335 334 333 334 334 334 335 335 334 333 333 336 334 331 331 331 331 331 330 327 327 327 329 330 325 321 325 328 324 323 328 333 337 337 331 323 319 317 311 303 298 295 295
182 180 179 177 178 187 200 218 293 340 355 11 22 28 34 38 38 32 26 18 13 12 6 349 348 352 349 343 335 329 330 331 331 332 333 333 335 335 333 331 331 333 336 334 331 331 331 331 331 331 330 329 327 328 330 330 328 325 323 321 322 327 334 340 339 332 324 321 322 321 316 311 306 301
191 190 191 188 187 197 217 239 295 341 359 9 15 21 29 32 28 22 15 7 1 0 355 344 342 345 347 341 329 322 322 323 325 328 331 332 332 329 326 326 329 331 333 333 333 334 333 333 335 337 336 332 329 328 329 331 333 332 328 326 327 330 333 333 330 326 322 319 319 318 319 324 326 320
198 196 198 198 199 211 232 246 295 3 2 359 5 16 22 21 14 8 2 354 346 343 341 339 337 336 333 326 320 321 323 325 328 329 328 324 320 318 319 322 325 327 328 330 332 332 331 333 337 338 337 333 329 328 328 329 334 339 338 333 330 331 329 323 319 320 319 318 316 314 314 319 328 333
205 204 205 206 209 221 239 240 220 17 350 344 354 6 10 6 1 354 346 339 335 335 336 337 334 330 326 325 326 328 329 330 331 329 322 314 308 309 313 318 323 326 326 327 329 329 328 330 332 333 334 332 328 326 327 329 333 339 341 339 337 337 332 323 318 319 319 318 315 315 313 310 311 322
210 210 208 209 214 221 225 218 205 295 308 313 329 343 348 347 344 340 335 333 333 334 335 335 333 330 329 329 330 330 331 331 331 327 319 310 305 304 306 310 314 317 318 320 322 323 322 320 320 323 326 326 324 323 324 326 330 333 336 339 341 339 332 323 320 319 317 315 313 314 313 309 306 311
214 214 210 210 216 219 212 205 209 245 267 283 304 318 325 329 330 331 332 332 334 334 335 334 332 331 330 329 329 330 330 329 325 319 313 307 302 301 301 302 304 307 309 312 314 313 310 308 309 312 314 317 320 321 321 323 325 328 331 333 333 332 326 321 319 318 316 312 311 313 314 315 315 317
213 214 210 210 217 221 213 206 211 233 254 272 289 301 310 319 325 330 331 332 333 334 334 332 332 330 328 327 326 326 325 323 320 316 312 307 303 301 300 301 303 305 306 309 312 312 309 309 311 313 314 317 320 322 322 323 324 327 331 330 327 324 323 319 317 317 316 313 312 312 314 315 316 318
205 206 207 213 220 219 209 204 215 238 255 268 281 296 310 319 323 327 329 329 330 330 330 330 328 326 324 323 321 320 322 326 328 325 318 313 310 309 310 313 316 317 316 318 324 326 324 323 323 323 324 325 325 326 327 327 325 327 331 329 323 319 320 321 319 317 317 315 313 312 311 312 312 314
199 201 207 214 218 211 205 211 227 244 257 268 282 298 309 315 319 323 326 326 327 328 328 327 324 321 321 320 320 322 330 338 341 335 327 322 322 325 328 330 331 330 328 327 331 334 333 332 331 330 331 331 328 326 326 327 328 328 326 322 320 318 318 318 319 320 320 319 316 314 312 311 311 311
198 204 212 216 211 206 209 220 233 242 250 266 284 298 306 311 316 321 325 327 328 328 326 323 321 320 322 322 324 330 338 343 345 343 338 334 333 336 336 335 334 333 331 329 329 330 331 331 330 327 329 330 329 327 324 321 321 323 319 314 313 311 311 314 319 324 326 323 320 317 316 315 313 310
204 210 214 212 207 207 212 219 226 234 246 267 284 294 301 308 314 320 325 327 328 326 324 323 323 324 325 325 328 334 339 341 342 342 339 335 334 334 334 333 334 335 334 333 333 332 331 329 327 321 319 321 321 322 324 320 315 313 311 309 309 309 310 316 321 323 323 323 320 317 314 313 311 308
205 206 205 204 204 208 213 215 221 233 250 267 279 289 298 306 315 323 327 327 326 325 325 325 325 326 325 326 329 333 336 336 335 334 333 331 331 331 332 333 335 335 334 333 333 333 331 329 326 322 320 319 317 318 323 324 318 314 312 312 315 316 315 316 317 315 315 317 317 315 312 310 309 309
202 200 199 200 203 207 212 218 228 243 257 269 280 289 299 310 320 325 326 325 325 325 325 326 326 326 325 327 330 331 330 329 329 329 329 330 330 331 332 333 333 332 331 330 330 332 332 332 333 332 328 326 325 323 323 326 326 325 324 323 323 322 316 311 309 308 309 310 310 311 311 310 310 312
204 202 202 205 208 211 217 227 238 251 263 275 284 292 303 314 321 322 322 324 325 325 325 325 325 325 325 326 327 326 325 325 327 330 333 334 334 333 332 331 330 329 329 328 328 330 332 336 340 339 333 330 330 327 325 327 330 333 333 330 327 324 319 312 308 306 306 307 308 308 309 308 309 311
206 204 207 211 213 216 224 234 245 256 269 279 287 296 307 315 317 319 322 325 325 324 324 325 324 324 323 321 320 321 323 326 330 336 338 338 337 334 332 331 330 329 327 325 326 329 334 337 340 339 334 333 332 328 325 325 327 332 335 331 327 328 326 319 313 310 308 307 308 307 307 306 306 309
211 209 209 212 215 222 230 238 249 261 275 285 292 301 309 312 315 319 322 323 322 323 324 324 323 321 318 317 319 322 324 328 333 338 340 339 337 334 332 331 329 327 325 324 326 331 336 338 339 339 337 334 331 327 325 324 323 327 334 332 328 330 331 327 321 317 313 312 311 309 307 307 308 312
211 210 210 213 218 225 233 242 253 269 282 289 294 301 306 310 314 318 320 321 321 322 322 322 320 318 317 318 321 322 327 333 337 338 338 337 335 333 332 330 328 327 325 325 328 332 336 338 337 336 334 331 326 323 322 319 317 319 325 328 327 328 330 329 326 322 319 319 319 315 311 310 312 317
205 207 212 216 220 227 236 247 262 278 287 290 294 301 305 309 313 316 319 321 320 320 320 320 318 318 321 323 323 324 330 336 336 334 333 332 332 332 330 328 327 327 326 327 329 331 334 335 333 329 326 324 321 320 319 317 315 316 320 323 325 326 327 327 326 323 320 322 324 322 319 319 319 322
201 205 212 217 225 233 242 256 272 284 288 290 296 302 305 307 311 315 319 319 317 317 320 320 321 323 325 325 326 330 334 333 330 329 329 329 329 330 329 327 327 327 327 327 327 329 330 330 325 322 322 323 324 324 324 324 323 323 323 322 323 326 327 327 326 323 320 322 326 325 324 324 323 322
201 206 214 220 229 239 251 266 279 285 287 292 299 302 303 306 311 316 318 317 317 319 322 323 323 324 324 326 331 334 333 328 326 327 328 328 328 328 328 328 328 328 326 326 324 325 326 326 323 322 325 328 331 330 328 327 326 326 325 324 324 326 329 329 329 325 320 322 327 327 326 327 325 322
204 210 218 225 232 244 259 273 283 287 291 296 298 298 300 306 312 316 317 316 318 321 322 322 322 322 324 330 333 332 329 326 325 326 326 327 327 327 328 329 329 327 325 323 321 320 322 323 324 326 329 332 334 332 329 328 327 327 328 328 327 327 329 329 328 324 319 318 320 318 319 323 321 316
209 214 221 227 237 252 266 279 288 293 294 295 293 294 300 307 312 315 315 316 319 322 322 322 323 325 327 330 329 327 326 325 324 324 325 325 326 327 328 328 327 325 324 322 320 319 319 321 324 329 331 333 335 334 331 329 329 329 330 331 331 330 330 330 327 322 318 320 318 304 296 298 300 298
213 216 221 230 244 259 273 288 298 297 292 289 289 293 300 308 313 314 315 316 319 321 321 323 326 327 328 329 327 326 325 324 323 322 323 323 325 327 328 327 325 325 325 324 321 319 320 321 325 330 332 334 336 335 332 329 329 330 331 333 334 335 336 336 335 330 324 325 330 319 296 283 280 281